Regional Weather Roundup
Issued by NWS

Home | Current Version | Previous Version | Graphics & Text | Print | Product List | Glossary Off
Versions: 1 2 3 4 5 6 7 8 9 10 11 12 13 14 15 16 17 18 19 20 21 22 23 24 25 26 27 28 29 30 31 32 33 34 35 36 37 38 39 40 41 42 43 44 45 46 47 48 49

000
ASUS43 KMPX 050410
RWRMN
WEATHER ROUNDUP FOR MINNESOTA
NATIONAL WEATHER SERVICE TWIN CITIES/CHANHASSEN MN
1100 PM CDT FRI SEP 04 2015


NOTE: "FAIR" INDICATES FEW OR NO CLOUDS BELOW 12,000 FEET WITH NO
SIGNIFICANT WEATHER AND/OR OBSTRUCTIONS TO VISIBILITY. N/A MEANS
CURRENT SKY AND/OR WEATHER CONDITIONS ARE NOT AVAILABLE.

MNZ060>063-068>070-050500-
   Twin Cities Metro

CITY           SKY/WX    TMP DP  RH WIND       PRES   REMARKS
TWIN CITIES    CLOUDY    80  67  64 S8        29.94R
ST PAUL        MOCLDY    78  72  81 S5        29.94R
CRYSTAL        MOCLDY    80  65  59 S8        29.92R
BLAINE         PTCLDY    82  72  69 S7        29.94R
LAKEVILLE      CLOUDY    75  72  88 S7        29.94F
EDEN PRAIRIE   CLOUDY    76  67  73 S6        29.93R
SOUTH ST PAUL  MOCLDY    79  71  74 S6        29.94S
LAKE ELMO      FAIR      77  72  83 S6        29.96R
$$
MNZ001>005-007-008-013>017-022>024-027-028-050500-
   Northwest Minnesota

CITY           SKY/WX    TMP DP  RH WIND       PRES   REMARKS
BEMIDJI        CLOUDY    69  68  95 SE5       29.89F
HALLOCK        MOCLDY    66  64  94 CALM      29.87R
ROSEAU         PTCLDY    72  66  83 W6        29.87R
WARROAD        MOCLDY    70  64  83 SW5       29.86S
THIEF RVR FALL PTCLDY    70  70 100 CALM      29.86S
CROOKSTON      PTCLDY    72  70  94 CALM      29.85S
FOSSTON        CLOUDY    72  70  94 SE7       29.87S
DETROIT LAKES  MOCLDY    75  70  83 S9        29.88F
MOORHEAD       PTCLDY    73  72  94 SE6       29.83S
PARK RAPIDS    MOCLDY    73  70  90 SE6       29.90F
MAHNOMEN       MOCLDY    73  71  91 SE7       29.85S
$$
MNZ006-009>011-018-025>026-050500-
   North Central Minnesota

CITY           SKY/WX    TMP DP  RH WIND       PRES   REMARKS
BAUDETTE       CLOUDY    72  69  90 SE12      29.86F
FLAG ISLAND    LGT RAIN  70  66  88 SW9       29.83F
INTL FALLS     RAIN      71  69  93 SE7       29.92R FOG
WASKISH        CLOUDY    72  70  94 S5        29.89R
BIG FORK       TSTM      66  63  88 SE6       29.98S
LONGVILLE      CLOUDY    73  72  94 CALM      29.93R
GRAND RAPIDS     N/A     70  64  83 SE5       29.95R
CRANE LAKE     CLOUDY    70  61  73 SE3       29.96F
ORR            CLOUDY    72  63  73 W6        29.96R
COOK           CLOUDY    70  63  78 SE3       29.97R
WALKER         CLOUDY    71  68  90 SE5       29.92R
$$
MNZ012-019>021-037-050500-
   Northeast Minnesota

CITY           SKY/WX    TMP DP  RH WIND       PRES   REMARKS
DULUTH         PTCLDY    65  61  87 E8        29.98F
ELY            PTCLDY    66  57  72 SE6       29.99S
HIBBING        CLOUDY    68  63  84 E3        29.97R
EVELETH        PTCLDY    66  61  82 CALM      29.99S
DULUTH HARBOR  PTCLDY    61  57  88 E7        29.97F
TWO HARBORS    CLOUDY    70  63  78 N3        29.97S
SILVER BAY     PTCLDY    64  61  88 CALM      29.98S
GRAND MARAIS     N/A     68  56  65 NE8       30.01S
G MARAIS ARPRT CLEAR     63  54  72 E5        30.06S
$$
MNZ029>031-032-039>041-046>048-054>057-064-050500-
   West Central Minnesota

CITY           SKY/WX    TMP DP  RH WIND       PRES   REMARKS
FERGUS FALLS   PTCLDY    75  66  73 SE9       29.85R
WHEATON        CLEAR     68  66  94 SE6       29.85R
MORRIS         PTCLDY    73  70  88 SE8       29.85F
ALEXANDRIA     PTCLDY    74  68  81 SE7       29.90S
ELBOW LAKE     FAIR      73  68  84 SE9       29.86S
WADENA         CLOUDY    73  70  88 S3        29.89F
GLENWOOD       PTCLDY    72  68  88 SE5       29.90S
APPLETON       MOCLDY    75  70  83 S8        29.84F
BENSON         MOCLDY    73  66  78 S7        29.86F
ORTONVILLE     CLEAR     72  66  83 SE7       29.84S
MADISON        MOCLDY    73  70  88 S7        29.85S
WILLMAR        FAIR      75  70  83 S8        29.90S
$$
MNZ033>034-036-042>043-049>051-058-059-050500-
   Central Minnesota

CITY           SKY/WX    TMP DP  RH WIND       PRES   REMARKS
ST CLOUD       CLOUDY    76  72  87 S8        29.91S
SAUK CENTRE    CLOUDY    74  70  87 E7        29.90F
PAYNESVILLE    MOCLDY    76  67  74 E7        29.91S
AITKIN         LGT RAIN  75  70  83 SE7       29.92R
PINE RIVER     CLOUDY    73  73 100 CALM      29.95R
BRAINERD       CLOUDY    73  70  90 SE7       29.92R
STAPLES        CLOUDY    73  72  94 SE3       29.90S
LONG PRAIRIE   FAIR      72  70  94 SE5       29.91F
LITTLE FALLS   CLOUDY    77  70  78 S6        29.91F
LITCHFIELD     MOCLDY    75  72  88 E3        29.92R
BUFFALO        MOCLDY    76  65  69 CALM      29.94S
MAPLE LAKE     CLOUDY    76  69  79 CALM      29.93S
$$
MNZ037-044-045-052-053-050500-
   East Central Minnesota

CITY           SKY/WX    TMP DP  RH WIND       PRES   REMARKS
PRINCETON      MOCLDY    77  73  88 S6        29.93R
MORA           MOCLDY    73  70  88 SE3       29.95R
CAMBRIDGE      PTCLDY    81  70  69 SE7       29.91S
RUSH CITY      FAIR      76  71  84 SE6       29.94S
MOOSE LAKE     PTCLDY    61  59  94 NE3       29.94S
HINCKLEY       MOCLDY    75  72  88 SE3       29.94S
CLOQUET        CLEAR     63  57  82 E5        29.97F
MCGREGOR       MOCLDY    70  66  88 SE6       29.94S
$$
MNZ071>073-080-081-089-090-097-098-050500-
   Southwest Minnesota

CITY           SKY/WX    TMP DP  RH WIND       PRES   REMARKS
MONTEVIDEO     MOCLDY    77  72  83 S12G17    29.87F
GRANITE FALLS  CLOUDY    77  72  84 SE12      29.88F
CANBY          CLEAR     75  70  86 SE6       29.86F
MARSHALL       FAIR      75  68  78 S13       29.88F
REDWOOD FALLS  CLEAR     76  71  85 SE13      29.89S
OLIVIA         CLEAR     70  64  83 SE10      29.89F
PIPESTONE      CLOUDY    75  70  83 S10       29.90S
WINDOM         CLEAR     75  72  88 SE9       29.92F
WORTHINGTON    CLEAR     75  68  78 S10       29.92S
JACKSON        CLEAR     77  72  83 SE10      29.94F
TRACY          MOCLDY    76  73  88 S10       29.89F
SLAYTON        PTCLDY    73  72  95 SE5       29.92S
$$
MNZ065>067-074>077-082>085-091>093-050500-
   South Central Minnesota

CITY           SKY/WX    TMP DP  RH WIND       PRES   REMARKS
MANKATO        CLOUDY    79  70  73 S10       29.94S
NEW ULM        PTCLDY    75  72  88 SE8       29.92S
ST JAMES       PTCLDY    75  73  94 SE7       29.94S
FAIRMONT       PTCLDY    75  68  78 S9        29.94S
GLENCOE        CLOUDY    75  71  87 SE6       29.93R
FARIBAULT      CLOUDY    75  70  83 SE5       29.96F
OWATONNA       CLOUDY    75  72  88 SE6       29.97F
WASECA         CLOUDY    73  70  88 E7        29.97S
ALBERT LEA     CLOUDY    79  73  83 S6        29.97F
$$
MNZ078>079-086>088-094>096-050500-
   Southeast Minnesota

CITY           SKY/WX    TMP DP  RH WIND       PRES   REMARKS
ROCHESTER      LGT RAIN  75  72  90 S6        30.01R FOG
RED WING       PTCLDY    81  72  74 S6        29.95S
STANTON        LGT RAIN  77  72  85 S3        29.95S
DODGE CENTER   LGT RAIN  73  72  94 CALM      29.99F
WINONA         PTCLDY    77  72  83 SE6       29.98S
AUSTIN         CLOUDY    79  73  83 SE3       29.99S
PRESTON        CLOUDY    75  70  83 S7        30.02R
$$
ABBREVIATIONS USED IN REMARKS
   TC - TEMPERATURES IN CELSIUS
  WCI - WIND CHILL INDEX
   HX - HEAT INDEX
  VSB - VISIBILITY
$$


USA.gov is the U.S. government's official web portal to all federal, state and local government web resources and services.